Regional Weather Roundup
Issued by NWS

Home | Current Version | Previous Version | Text Only | Print | Product List | Glossary Off
Versions: 1 2 3 4 5 6 7 8 9 10 11 12 13 14 15 16 17 18 19 20 21 22 23 24 25 26 27 28 29 30 31 32 33 34 35 36 37 38 39 40 41 42 43 44 45 46 47 48 49 50

000
ASUS45 KCYS 281810
RWRWY

WYOMING REGIONAL WEATHER ROUNDUP
NATIONAL WEATHER SERVICE CHEYENNE WY
1200 PM MDT TUE MAR 28 2017

NOTE:  "FAIR" INDICATES FEW OR NO CLOUDS BELOW 12,000 FEET
WITH NO SIGNIFICANT WEATHER AND/OR OBSTRUCTIONS TO VISIBILITY.

WYZ001-281900-
YELLOWSTONE NATIONAL PARK

CITY           SKY/WX    TMP DP  RH WIND       PRES   REMARKS
LK YELLOWSTONE   N/A     31  20  63 VRB5      30.14S WCI  26
6HR MIN TEMP:  21; 6HR MAX TEMP:  31;

W YELLOWSTONE  NOT AVBL

$$
WYZ002>013-054>058-071-098>099-281900-
NORTHERN WYOMING

CITY           SKY/WX    TMP DP  RH WIND       PRES   REMARKS
JACKSON        SUNNY     39  27  60 N8        30.11F WCI  34
CODY           FAIR      44  33  65 N14G20    30.13F
GREYBULL       FAIR      47  32  56 NW15      30.09S
6HR MIN TEMP:  39; 6HR MAX TEMP:  47; 6HR PCP: TRACE;

WORLAND        LGT RAIN  42  39  89 N13       30.11S
6HR MIN TEMP:  38; 6HR MAX TEMP:  42; 6HR PCP:  0.07;

SHERIDAN       LGT RAIN  40  36  86 NW15      30.14F WCI  32
6HR MIN TEMP:  36; 6HR MAX TEMP:  40; 6HR PCP:  0.48;

BUFFALO        CLOUDY    42  35  76 N20G35    30.10R
6HR MIN TEMP:  36; 6HR MAX TEMP:  42; 6HR PCP:  0.11;

GILLETTE       CLOUDY    42  37  82 NW21G28   30.06R
6HR MIN TEMP:  38; 6HR MAX TEMP:  44;

HULETT         MOCLDY    55  39  54 NE8       30.03F
NEWCASTLE      DRIZZLE   45  36  70 CALM      30.03S

$$
WYZ014>020-022>026-101>103-281900-
CENTRAL WYOMING

CITY           SKY/WX    TMP DP  RH WIND       PRES   REMARKS
BIG PINEY      FAIR      44  21  40 N22G29    30.06R
6HR MIN TEMP:  32; 6HR MAX TEMP:  44;

PINEDALE       MOCLDY    37  27  65 NW15      30.06S WCI  28
DUBOIS         FAIR      39  25  56 CALM      30.06S
LANDER         LGT RAIN  39  34  82 NW7       30.09R WCI  34
6HR MIN TEMP:  36; 6HR MAX TEMP:  40; 6HR PCP:  0.12;

RIVERTON       CLOUDY    41  33  73 N21       30.09R
6HR MIN TEMP:  36; 6HR MAX TEMP:  41;

CASPER         CLOUDY    39  36  89 N23G29    30.04R WCI  28
6HR MIN TEMP:  37; 6HR MAX TEMP:  41; 6HR PCP:  0.03;

DOUGLAS        CLOUDY    43  37  79 NE15      30.02R
6HR MIN TEMP:  38; 6HR MAX TEMP:  43;


$$
WYZ021-027>030-104>119-281900-
SOUTHERN WYOMING

CITY           SKY/WX    TMP DP  RH WIND       PRES   REMARKS
EVANSTON       FAIR      37  27  67 N18       30.10S WCI  27
6HR MIN TEMP:  31; 6HR MAX TEMP:  37;

KEMMERER         N/A     36  28  75 W13       30.10R WCI  27
FORT BRIDGER   MOCLDY    39  34  82 NW10      30.12S WCI  32
ROCK SPRINGS   HVY SNOW  33  31  92 NW10      30.07R VSB 1/4 WCI  25
6HR MIN TEMP:  33; 6HR MAX TEMP:  34; 6HR PCP:  0.43;

DIXON            N/A     46  33  62 N20G25    29.97S
RAWLINS        CLOUDY    39  33  79 N21       29.99S WCI  29
6HR MIN TEMP:  36; 6HR MAX TEMP:  41;

SARATOGA       LGT RAIN  37  37 100 N16G22    29.98R WCI  28
LARAMIE        LGT RAIN  36  34  92 N17       29.93R WCI  26
6HR MIN TEMP:  34; 6HR MAX TEMP:  37; 6HR PCP:  0.01;

CHEYENNE       LGT RAIN  40  38  93 N15       29.91R FOG     WCI  32
6HR MIN TEMP:  37; 6HR MAX TEMP:  40; 6HR PCP: TRACE;

TORRINGTON     LGT RAIN  46  45  96 E10       29.92F FOG
6HR MIN TEMP:  44; 6HR MAX TEMP:  46; 6HR PCP:  0.03;

PINE BLUFFS    CLOUDY    43  43 100 N10       29.91R

$$



USA.gov is the U.S. government's official web portal to all federal, state and local government web resources and services.